Location: Mascot Post Office (historical)
(40.2645°N, 99.5462°W)
Time: 02:15:57
(UTC+00:00)

CZ-4C R/B - Pass Details

Date: 14 July 2020
Orbit: 409 x 491 km, 97.7° (Epoch: 14 August)

Event Time Altitude Azimuth Distance (km) Brightness Sun altitude
Exits shadow 10:09:25 - 167° (SSE) 2,175 6.1 -11.9°
Reaches altitude 10° 10:10:57 10° 168° (SSE) 1,513 5.3 -11.7°
Maximum altitude 10:14:10 88° 252° (WSW) 426 2.7 -11.2°
Drops below altitude 10° 10:17:22 10° 347° (NNW) 1,497 5.9 -10.7°
Sets 10:19:21 0° 348° (NNW) 2,358 7.0 -10.5°
